Consulta los datos en tiempo real de la estación municipal de Susqueda - Veïnat del Coll
| Hora UTC | 15:20 |
|---|---|
| Temperatura | 13.0 ºC |
| Humedad | 72.5 % |
| Presión | 1011.3 hPa |
| Pluja | 0.0 mm |
| Velocidad viento | 3.0 km/h |
| Dirección viento | SE |
| Radiación solar | 578.1 W/m² |
| Temperatura (ºC) | Humedad (%) | Presión (hPa) | Velocidad viento (km/h) | Precipitación (mm) | Radiación solar (W/m²) | |||||||||||||
|---|---|---|---|---|---|---|---|---|---|---|---|---|---|---|---|---|---|---|
| Hora UTC | Aire | Humedad | Presión | Vel. | Dir. | Vel. Max | Dir. | Intent. máx 5 min. | Rad. Sol. | |||||||||
| 00:05 | 6.7 | 87.1 | 1011.1 | 3.8 | NNE | 3.8 | WNW | 0.0 | 0.1 | |||||||||
| 00:10 | 6.7 | 88.0 | 1011.1 | 1.9 | N | 10.2 | NE | 0.0 | 0.1 | |||||||||
| 00:15 | 6.7 | 89.1 | 1011.0 | 2.9 | W | 10.6 | NNE | 0.0 | 0.1 | |||||||||
| 00:20 | 6.6 | 89.9 | 1011.0 | 4.4 | S | 16.2 | SE | 0.0 | 0.1 | |||||||||
| 00:25 | 6.9 | 89.2 | 1010.8 | 3.7 | SSW | 10.9 | S | 0.0 | 0.1 | |||||||||
| 00:30 | 6.8 | 89.6 | 1010.8 | 3.2 | SSW | 9.9 | E | 0.0 | 0.1 | |||||||||
| 00:35 | 6.9 | 89.3 | 1010.7 | 3.3 | SSW | 10.9 | S | 0.0 | 0.1 | |||||||||
| 00:40 | 7.0 | 88.9 | 1010.7 | 3.5 | SSW | 16.6 | W | 0.0 | 0.1 | |||||||||
| 00:45 | 7.0 | 89.0 | 1010.7 | 4.8 | WSW | 12.4 | S | 0.0 | 0.1 | |||||||||
| 00:50 | 7.0 | 88.4 | 1010.7 | 4.6 | WSW | 15.9 | WNW | 0.0 | 0.1 | |||||||||
| 00:55 | 6.9 | 88.0 | 1010.7 | 4.9 | WSW | 12.7 | WSW | 0.0 | 0.1 | |||||||||
| 01:00 | 6.8 | 88.1 | 1010.7 | 4.5 | WSW | 13.8 | W | 0.0 | 0.1 | |||||||||
| 01:05 | 6.7 | 88.6 | 1010.6 | 2.6 | SW | 6.7 | NW | 0.0 | 0.1 | |||||||||
| 01:10 | 6.6 | 89.3 | 1010.6 | 3.0 | SW | 9.9 | S | 0.0 | 0.1 | |||||||||
| 01:15 | 6.4 | 90.2 | 1010.6 | 2.6 | SSW | 7.1 | SSW | 0.0 | 0.1 | |||||||||
| 01:20 | 6.4 | 90.7 | 1010.6 | 2.5 | WSW | 10.6 | WSW | 0.0 | 0.1 | |||||||||
| 01:25 | 6.4 | 90.9 | 1010.4 | 4.5 | WSW | 13.1 | WNW | 0.0 | 0.1 | |||||||||
| 01:30 | 6.4 | 91.0 | 1010.4 | 2.9 | SW | 12.4 | NW | 0.0 | 0.1 | |||||||||
| 01:35 | 6.3 | 91.6 | 1010.4 | 4.5 | SW | 14.8 | S | 0.0 | 0.1 | |||||||||
| 01:40 | 6.3 | 92.1 | 1010.4 | 4.4 | WSW | 13.8 | W | 0.0 | 0.1 | |||||||||
| 01:45 | 6.2 | 92.5 | 1010.5 | 4.0 | WSW | 14.1 | SSW | 0.0 | 0.1 | |||||||||
| 01:50 | 6.2 | 93.0 | 1010.5 | 5.1 | SW | 23.3 | WNW | 0.0 | 0.1 | |||||||||
| 01:55 | 6.2 | 93.2 | 1010.4 | 5.6 | SW | 16.6 | SSW | 0.0 | 0.1 | |||||||||
| 02:00 | 6.2 | 93.2 | 1010.4 | 4.2 | SW | 12.0 | SW | 0.0 | 0.1 | |||||||||
| 02:05 | 6.2 | 93.2 | 1010.4 | 3.6 | SW | 12.7 | W | 0.0 | 0.1 | |||||||||
| 02:10 | 6.1 | 93.2 | 1010.4 | 4.7 | WSW | 17.6 | WNW | 0.0 | 0.1 | |||||||||
| 02:15 | 6.0 | 93.4 | 1010.4 | 4.6 | SW | 14.1 | WSW | 0.0 | 0.1 | |||||||||
| 02:20 | 6.0 | 93.7 | 1010.4 | 4.5 | SW | 12.4 | WSW | 0.0 | 0.1 | |||||||||
| 02:25 | 6.0 | 93.8 | 1010.4 | 3.5 | SSW | 9.5 | SW | 0.0 | 0.1 | |||||||||
| 02:30 | 5.9 | 93.6 | 1010.4 | 4.0 | SW | 10.9 | WSW | 0.0 | 0.1 | |||||||||
| 02:35 | 5.9 | 93.9 | 1010.5 | 5.1 | SW | 15.9 | SW | 0.0 | 0.1 | |||||||||
| 02:40 | 5.8 | 94.1 | 1010.5 | 4.6 | SW | 15.2 | W | 0.0 | 0.1 | |||||||||
| 02:45 | 5.8 | 94.6 | 1010.5 | 5.0 | SW | 22.9 | W | 0.0 | 0.1 | |||||||||
| 02:50 | 5.8 | 94.8 | 1010.5 | 4.4 | SW | 15.9 | SSW | 0.0 | 0.1 | |||||||||
| 02:55 | 5.8 | 94.9 | 1010.5 | 4.5 | WSW | 13.1 | SW | 0.0 | 0.1 | |||||||||
| 03:00 | 5.8 | 95.1 | 1010.5 | 4.9 | SW | 16.6 | W | 0.0 | 0.1 | |||||||||
| 03:05 | 5.8 | 95.3 | 1010.5 | 4.7 | WSW | 16.2 | WSW | 0.0 | 0.1 | |||||||||
| 03:10 | 5.7 | 95.3 | 1010.5 | 3.5 | SW | 9.2 | W | 0.0 | 0.1 | |||||||||
| 03:15 | 5.6 | 95.4 | 1010.6 | 2.9 | SSW | 9.2 | SSW | 0.0 | 0.1 | |||||||||
| 03:20 | 5.6 | 95.8 | 1010.6 | 4.3 | WSW | 10.9 | SSW | 0.0 | 0.1 | |||||||||
| 03:25 | 5.6 | 95.9 | 1010.6 | 4.6 | WSW | 12.0 | WNW | 0.0 | 0.1 | |||||||||
| 03:30 | 5.6 | 95.8 | 1010.6 | 2.9 | SW | 10.2 | SSW | 0.0 | 0.1 | |||||||||
| 03:35 | 5.5 | 95.8 | 1010.5 | 3.9 | SW | 10.6 | WNW | 0.0 | 0.1 | |||||||||
| 03:40 | 5.6 | 95.8 | 1010.5 | 4.0 | SW | 12.4 | W | 0.0 | 0.1 | |||||||||
| 03:45 | 5.6 | 95.7 | 1010.5 | 2.5 | SSW | 5.6 | SSW | 0.0 | 0.1 | |||||||||
| 03:50 | 5.7 | 95.6 | 1010.5 | 3.2 | SSW | 12.7 | S | 0.0 | 0.1 | |||||||||
| 03:55 | 5.7 | 95.3 | 1010.5 | 1.1 | ESE | 3.5 | E | 0.0 | 0.1 | |||||||||
| 04:00 | 5.7 | 95.5 | 1010.5 | 1.1 | SW | 3.9 | SW | 0.0 | 0.1 | |||||||||
| 04:05 | 5.7 | 95.7 | 1010.5 | 1.6 | SSW | 4.9 | S | 0.0 | 0.1 | |||||||||
| 04:10 | 5.6 | 95.7 | 1010.5 | 1.7 | SW | 7.1 | S | 0.0 | 0.1 | |||||||||
| 04:15 | 5.6 | 95.8 | 1010.5 | 3.1 | WSW | 12.4 | WSW | 0.0 | 0.1 | |||||||||
| 04:20 | 5.5 | 96.0 | 1010.5 | 4.6 | WSW | 15.2 | WNW | 0.0 | 0.3 | |||||||||
| 04:25 | 5.5 | 96.2 | 1010.5 | 5.9 | WSW | 18.7 | W | 0.0 | 0.9 | |||||||||
| 04:30 | 5.6 | 96.2 | 1010.5 | 4.2 | WSW | 19.4 | SSW | 0.0 | 1.5 | |||||||||
| 04:35 | 5.6 | 96.2 | 1010.5 | 6.1 | W | 15.2 | SSW | 0.0 | 1.9 | |||||||||
| 04:40 | 5.5 | 96.3 | 1010.5 | 5.0 | WSW | 21.5 | W | 0.0 | 2.9 | |||||||||
| 04:45 | 5.5 | 96.5 | 1010.5 | 5.0 | W | 14.1 | NNW | 0.0 | 5.3 | |||||||||
| 04:50 | 5.4 | 96.7 | 1010.5 | 5.2 | W | 15.9 | WSW | 0.0 | 13.9 | |||||||||
| 04:55 | 5.4 | 96.9 | 1010.6 | 4.8 | WSW | 13.8 | S | 0.0 | 29.9 | |||||||||
| 05:00 | 5.3 | 97.0 | 1010.6 | 5.2 | SW | 16.9 | NW | 0.0 | 30.1 | |||||||||
| 05:05 | 5.3 | 97.2 | 1010.6 | 4.5 | WSW | 15.2 | WSW | 0.0 | 53.5 | |||||||||
| 05:10 | 5.3 | 97.4 | 1010.6 | 6.0 | W | 12.4 | WSW | 0.0 | 85.7 | |||||||||
| 05:15 | 5.3 | 97.4 | 1010.7 | 3.5 | SW | 9.2 | WNW | 0.0 | 62.3 | |||||||||
| 05:20 | 5.2 | 97.6 | 1010.7 | 5.1 | W | 20.1 | WSW | 0.0 | 118.3 | |||||||||
| 05:25 | 5.3 | 97.9 | 1010.8 | 5.1 | W | 21.5 | WNW | 0.0 | 122.8 | |||||||||
| 05:30 | 5.4 | 97.7 | 1010.8 | 4.9 | W | 11.3 | NW | 0.0 | 116.5 | |||||||||
| 05:35 | 5.5 | 97.7 | 1011.0 | 3.5 | W | 12.0 | SW | 0.0 | 99.8 | |||||||||
| 05:40 | 5.6 | 97.5 | 1011.0 | 2.8 | SSW | 12.0 | SW | 0.0 | 111.3 | |||||||||
| 05:45 | 5.7 | 97.0 | 1011.1 | 2.2 | WNW | 9.5 | NW | 0.0 | 175.9 | |||||||||
| 05:50 | 5.7 | 96.3 | 1011.1 | 5.3 | W | 15.5 | WNW | 0.0 | 174.1 | |||||||||
| 05:55 | 5.6 | 96.0 | 1011.2 | 4.8 | WNW | 13.4 | WNW | 0.0 | 174.3 | |||||||||
| 06:00 | 5.4 | 96.1 | 1011.2 | 4.5 | W | 12.0 | W | 0.0 | 178.2 | |||||||||
| 06:05 | 5.4 | 96.6 | 1011.4 | 4.5 | WNW | 14.5 | W | 0.0 | 225.1 | |||||||||
| 06:10 | 5.6 | 97.0 | 1011.4 | 2.9 | NW | 8.8 | WNW | 0.0 | 207.3 | |||||||||
| 06:15 | 5.6 | 96.5 | 1011.4 | 4.2 | W | 15.9 | WNW | 0.0 | 228.3 | |||||||||
| 06:20 | 5.6 | 96.9 | 1011.4 | 3.8 | WSW | 15.2 | NW | 0.0 | 258.2 | |||||||||
| 06:25 | 5.7 | 96.9 | 1011.4 | 4.7 | W | 14.1 | W | 0.0 | 282.3 | |||||||||
| 06:30 | 5.7 | 96.5 | 1011.4 | 4.9 | W | 13.8 | WNW | 0.0 | 299.7 | |||||||||
| 06:35 | 5.7 | 96.3 | 1011.3 | 4.8 | W | 14.5 | W | 0.0 | 295.8 | |||||||||
| 06:40 | 5.8 | 96.4 | 1011.3 | 3.4 | W | 11.3 | WNW | 0.0 | 275.7 | |||||||||
| 06:45 | 6.0 | 96.2 | 1011.3 | 3.0 | W | 12.7 | W | 0.0 | 332.2 | |||||||||
| 06:50 | 6.1 | 95.6 | 1011.3 | 4.5 | W | 13.1 | WSW | 0.0 | 325.9 | |||||||||
| 06:55 | 6.0 | 95.5 | 1011.4 | 6.5 | W | 17.6 | W | 0.0 | 329.5 | |||||||||
| 07:00 | 5.9 | 95.5 | 1011.4 | 4.5 | SW | 13.8 | WNW | 0.0 | 333.8 | |||||||||
| 07:05 | 5.9 | 95.8 | 1011.4 | 4.0 | WSW | 13.8 | W | 0.0 | 365.2 | |||||||||
| 07:10 | 6.1 | 95.9 | 1011.4 | 4.7 | WSW | 13.8 | WNW | 0.0 | 323.6 | |||||||||
| 07:15 | 6.0 | 95.5 | 1011.5 | 4.3 | SW | 11.3 | WSW | 0.0 | 291.2 | |||||||||
| 07:20 | 6.0 | 96.0 | 1011.5 | 3.4 | S | 9.2 | S | 0.0 | 368.7 | |||||||||
| 07:25 | 6.1 | 96.2 | 1011.6 | 2.0 | WSW | 7.8 | WSW | 0.0 | 342.0 | |||||||||
| 07:30 | 6.3 | 95.9 | 1011.6 | 2.7 | S | 8.5 | S | 0.0 | 357.9 | |||||||||
| 07:35 | 6.4 | 95.8 | 1011.6 | 1.7 | WNW | 6.4 | SE | 0.0 | 384.4 | |||||||||
| 07:40 | 6.7 | 95.1 | 1011.6 | 4.5 | SSW | 9.9 | SW | 0.0 | 601.1 | |||||||||
| 07:45 | 7.0 | 92.5 | 1011.7 | 6.1 | S | 16.6 | S | 0.0 | 563.4 | |||||||||
| 07:50 | 8.0 | 88.5 | 1011.7 | 2.6 | SSE | 9.5 | ESE | 0.0 | 568.1 | |||||||||
| 07:55 | 8.7 | 86.5 | 1011.8 | 3.3 | E | 8.5 | ENE | 0.0 | 398.6 | |||||||||
| 08:00 | 8.8 | 86.9 | 1011.8 | 3.2 | E | 11.6 | ESE | 0.0 | 589.9 | |||||||||
| 08:05 | 9.6 | 86.6 | 1011.9 | 3.9 | E | 10.9 | ENE | 0.0 | 607.9 | |||||||||
| 08:10 | 10.1 | 85.2 | 1011.9 | 5.2 | E | 13.1 | SE | 0.0 | 711.6 | |||||||||
| 08:15 | 9.8 | 83.8 | 1011.9 | 5.2 | ENE | 13.4 | ENE | 0.0 | 686.0 | |||||||||
| 08:20 | 10.0 | 84.4 | 1011.9 | 5.5 | ENE | 12.4 | NE | 0.0 | 709.2 | |||||||||
| 08:25 | 10.3 | 83.4 | 1011.9 | 5.9 | ENE | 15.5 | ENE | 0.0 | 516.9 | |||||||||
| 08:30 | 9.7 | 84.7 | 1011.9 | 2.4 | NNE | 7.8 | ENE | 0.0 | 390.3 | |||||||||
| 08:35 | 9.5 | 86.2 | 1012.1 | 1.5 | NNW | 6.4 | NNE | 0.0 | 391.7 | |||||||||
| 08:40 | 9.2 | 84.7 | 1012.1 | 2.3 | W | 6.7 | WSW | 0.0 | 353.3 | |||||||||
| 08:45 | 8.6 | 86.8 | 1012.2 | 3.1 | NNW | 8.5 | WNW | 0.0 | 194.8 | |||||||||
| 08:50 | 8.4 | 88.3 | 1012.2 | 2.7 | N | 6.4 | NNE | 0.0 | 206.2 | |||||||||
| 08:55 | 8.6 | 89.5 | 1012.1 | 1.5 | N | 4.9 | NNW | 0.0 | 347.3 | |||||||||
| 09:00 | 9.1 | 88.8 | 1012.1 | 2.0 | N | 7.1 | NNE | 0.0 | 189.1 | |||||||||
| 09:05 | 8.7 | 88.6 | 1012.2 | 3.3 | NE | 7.4 | ENE | 0.0 | 143.1 | |||||||||
| 09:10 | 8.4 | 88.7 | 1012.2 | 2.7 | NE | 6.7 | ESE | 0.0 | 257.4 | |||||||||
| 09:15 | 8.6 | 90.2 | 1012.3 | 2.2 | NNW | 6.4 | NNE | 0.0 | 197.5 | |||||||||
| 09:20 | 8.7 | 89.1 | 1012.3 | 1.2 | NE | 4.6 | N | 0.0 | 180.7 | |||||||||
| 09:25 | 8.8 | 88.5 | 1012.5 | 1.9 | ENE | 5.3 | N | 0.0 | 256.8 | |||||||||
| 09:30 | 9.1 | 88.5 | 1012.5 | 2.1 | NNW | 4.2 | W | 0.0 | 322.8 | |||||||||
| 09:35 | 9.2 | 86.6 | 1012.5 | 3.3 | WNW | 9.5 | W | 0.0 | 172.5 | |||||||||
| 09:40 | 9.0 | 88.9 | 1012.5 | 1.9 | NNE | 7.4 | NW | 0.0 | 128.6 | |||||||||
| 09:45 | 8.9 | 88.4 | 1012.6 | 2.0 | ENE | 5.3 | SE | 0.0 | 180.0 | |||||||||
| 09:50 | 8.9 | 89.0 | 1012.6 | 2.2 | E | 5.3 | ENE | 0.0 | 166.4 | |||||||||
| 09:55 | 9.0 | 88.9 | 1012.6 | 1.9 | E | 4.2 | ENE | 0.0 | 411.6 | |||||||||
| 10:00 | 9.5 | 88.2 | 1012.6 | 2.3 | N | 7.8 | ENE | 0.0 | 791.5 | |||||||||
| 10:05 | 10.6 | 84.3 | 1012.6 | 4.1 | NE | 7.8 | ENE | 0.0 | 691.6 | |||||||||
| 10:10 | 11.1 | 83.1 | 1012.6 | 3.4 | NNE | 8.1 | N | 0.0 | 766.7 | |||||||||
| 10:15 | 10.9 | 82.1 | 1012.5 | 2.2 | E | 6.0 | NNE | 0.0 | 153.8 | |||||||||
| 10:20 | 10.4 | 81.4 | 1012.5 | 2.6 | SSW | 8.1 | S | 0.0 | 189.2 | |||||||||
| 10:25 | 10.0 | 82.4 | 1012.5 | 2.8 | W | 6.4 | SW | 0.0 | 166.7 | |||||||||
| 10:30 | 9.5 | 85.0 | 1012.5 | 2.0 | W | 4.9 | WSW | 0.0 | 178.3 | |||||||||
| 10:35 | 9.5 | 86.1 | 1012.4 | 1.7 | NW | 7.8 | WSW | 0.0 | 849.0 | |||||||||
| 10:40 | 10.5 | 83.1 | 1012.4 | 3.4 | NNW | 9.9 | W | 0.0 | 602.6 | |||||||||
| 10:45 | 10.5 | 81.8 | 1012.4 | 2.8 | E | 7.4 | ENE | 0.0 | 327.4 | |||||||||
| 10:50 | 10.5 | 83.4 | 1012.4 | 2.5 | ENE | 7.8 | NNE | 0.0 | 192.3 | |||||||||
| 10:55 | 10.1 | 86.7 | 1012.4 | 3.4 | ENE | 10.2 | E | 0.0 | 123.5 | |||||||||
| 11:00 | 9.7 | 90.8 | 1012.4 | 2.7 | E | 9.9 | E | 0.0 | 129.7 | |||||||||
| 11:05 | 9.3 | 92.3 | 1012.4 | 3.2 | E | 6.0 | NE | 0.0 | 129.6 | |||||||||
| 11:10 | 9.3 | 93.6 | 1012.4 | 2.8 | ENE | 6.4 | E | 0.0 | 440.3 | |||||||||
| 11:15 | 9.6 | 92.8 | 1012.3 | 2.3 | NE | 6.4 | ENE | 0.0 | 182.3 | |||||||||
| 11:20 | 9.8 | 91.9 | 1012.3 | 4.0 | ENE | 9.2 | ENE | 0.0 | 118.8 | |||||||||
| 11:25 | 9.5 | 92.6 | 1012.3 | 2.8 | ENE | 8.1 | ENE | 0.0 | 82.1 | |||||||||
| 11:30 | 9.4 | 93.6 | 1012.3 | 1.7 | ENE | 6.4 | ENE | 0.0 | 57.4 | |||||||||
| 11:35 | 9.2 | 94.2 | 1012.2 | 2.1 | ENE | 6.7 | ENE | 0.0 | 63.4 | |||||||||
| 11:40 | 9.0 | 94.5 | 1012.2 | 2.8 | ENE | 6.4 | ENE | 0.0 | 125.9 | |||||||||
| 11:45 | 8.9 | 95.2 | 1012.2 | 4.8 | ENE | 8.8 | E | 0.0 | 182.7 | |||||||||
| 11:50 | 9.3 | 95.9 | 1012.2 | 4.6 | ESE | 8.1 | E | 0.0 | 259.5 | |||||||||
| 11:55 | 9.6 | 93.8 | 1012.2 | 4.8 | E | 8.1 | ESE | 0.0 | 220.7 | |||||||||
| 12:00 | 9.7 | 93.3 | 1012.2 | 2.6 | ESE | 6.0 | ESE | 0.0 | 324.2 | |||||||||
| 12:05 | 10.1 | 92.0 | 1012.2 | 2.6 | NE | 6.7 | ENE | 0.0 | 572.5 | |||||||||
| 12:10 | 10.2 | 88.2 | 1012.2 | 2.5 | SE | 6.4 | SE | 0.0 | 173.2 | |||||||||
| 12:15 | 10.1 | 88.7 | 1012.2 | 1.0 | ENE | 4.2 | SE | 0.0 | 247.9 | |||||||||
| 12:20 | 10.2 | 89.6 | 1012.2 | 2.4 | E | 6.0 | E | 0.0 | 229.8 | |||||||||
| 12:25 | 10.3 | 89.2 | 1012.2 | 0.5 | ESE | 4.2 | E | 0.0 | 284.7 | |||||||||
| 12:30 | 10.5 | 88.2 | 1012.2 | 2.3 | NE | 4.2 | ENE | 0.0 | 462.8 | |||||||||
| 12:35 | 11.3 | 88.5 | 1012.2 | 3.2 | NE | 6.4 | ENE | 0.0 | 812.0 | |||||||||
| 12:40 | 11.3 | 84.1 | 1012.2 | 2.8 | ENE | 8.5 | SE | 0.0 | 176.1 | |||||||||
| 12:45 | 11.2 | 86.8 | 1012.2 | 3.0 | ESE | 6.4 | ESE | 0.0 | 904.0 | |||||||||
| 12:50 | 11.8 | 85.0 | 1012.2 | 2.8 | ENE | 6.0 | NE | 0.0 | 1042.0 | |||||||||
| 12:55 | 12.4 | 82.5 | 1012.1 | 2.7 | ENE | 5.6 | ENE | 0.0 | 738.6 | |||||||||
| 13:00 | 12.4 | 80.7 | 1012.1 | 2.6 | ENE | 7.1 | SE | 0.0 | 1005.0 | |||||||||
| 13:05 | 12.5 | 79.5 | 1012.1 | 2.3 | E | 7.4 | ENE | 0.0 | 774.6 | |||||||||
| 13:10 | 12.3 | 79.4 | 1012.1 | 3.5 | E | 7.8 | ENE | 0.0 | 889.0 | |||||||||
| 13:15 | 12.4 | 78.2 | 1012.0 | 3.0 | ENE | 14.1 | ENE | 0.0 | 351.0 | |||||||||
| 13:20 | 11.9 | 79.3 | 1012.0 | 2.8 | ESE | 7.8 | SSE | 0.0 | 407.9 | |||||||||
| 13:25 | 12.2 | 82.0 | 1012.0 | 2.8 | ESE | 7.1 | SE | 0.0 | 898.0 | |||||||||
| 13:30 | 12.6 | 78.7 | 1012.0 | 1.6 | NE | 6.4 | ESE | 0.0 | 863.0 | |||||||||
| 13:35 | 12.7 | 79.4 | 1012.0 | 3.4 | ENE | 7.8 | NE | 0.0 | 999.0 | |||||||||
| 13:40 | 12.4 | 78.9 | 1012.0 | 4.1 | ESE | 8.8 | E | 0.0 | 641.1 | |||||||||
| 13:45 | 11.9 | 80.1 | 1011.9 | 3.7 | ENE | 11.6 | E | 0.0 | 487.8 | |||||||||
| 13:50 | 11.6 | 82.1 | 1011.9 | 3.3 | ESE | 7.4 | ESE | 0.0 | 770.9 | |||||||||
| 13:55 | 12.3 | 80.4 | 1011.7 | 3.7 | E | 7.8 | ENE | 0.0 | 593.1 | |||||||||
| 14:00 | 12.0 | 81.3 | 1011.7 | 3.7 | ESE | 9.5 | SE | 0.0 | 731.0 | |||||||||
| 14:05 | 11.9 | 82.0 | 1011.6 | 3.3 | E | 7.8 | N | 0.0 | 530.6 | |||||||||
| 14:10 | 11.7 | 83.2 | 1011.6 | 1.6 | ESE | 5.3 | SSE | 0.0 | 340.9 | |||||||||
| 14:15 | 11.7 | 81.5 | 1011.5 | 3.3 | ENE | 10.2 | NE | 0.0 | 869.0 | |||||||||
| 14:20 | 12.0 | 81.2 | 1011.5 | 3.7 | E | 8.5 | NE | 0.0 | 770.5 | |||||||||
| 14:25 | 12.0 | 82.4 | 1011.4 | 3.4 | ESE | 6.7 | ESE | 0.0 | 546.2 | |||||||||
| 14:30 | 12.4 | 80.8 | 1011.4 | 3.4 | E | 8.8 | ENE | 0.0 | 875.0 | |||||||||
| 14:35 | 12.7 | 73.5 | 1011.3 | 2.4 | WSW | 6.0 | NW | 0.0 | 805.0 | |||||||||
| 14:40 | 12.8 | 71.7 | 1011.3 | 4.2 | N | 11.3 | N | 0.0 | 163.6 | |||||||||
| 14:45 | 12.4 | 75.0 | 1011.3 | 6.0 | ESE | 16.2 | S | 0.0 | 674.6 | |||||||||
| 14:50 | 12.6 | 75.3 | 1011.3 | 5.7 | SE | 16.2 | SE | 0.0 | 397.3 | |||||||||
| 14:55 | 12.2 | 76.7 | 1011.2 | 3.5 | ENE | 9.5 | SE | 0.0 | 269.9 | |||||||||
| 15:00 | 11.9 | 75.9 | 1011.2 | 3.5 | E | 10.2 | SSE | 0.0 | 238.1 | |||||||||
| 15:05 | 11.9 | 75.3 | 1011.2 | 2.9 | SE | 12.4 | ENE | 0.0 | 682.9 | |||||||||
| 15:10 | 12.5 | 73.6 | 1011.2 | 2.3 | ENE | 8.5 | ENE | 0.0 | 547.5 | |||||||||
| 15:15 | 12.7 | 73.0 | 1011.3 | 2.3 | E | 7.8 | SSE | 0.0 | 542.7 | |||||||||
| 15:20 | 13.0 | 72.5 | 1011.3 | 3.0 | SE | 7.8 | ENE | 0.0 | 578.1 | |||||||||
| Máxima | 13.0 | 97.9 | 1012.6 | 6.5 | W | 23.3 | WNW | 0.0 | 1042.0 | |||||||||
| Mínima | 5.2 | 71.7 | 1010.4 | |||||||||||||||
| Total | 0.0 | |||||||||||||||||